User: anonymous   Login
Location: Unspecified
(0.0000°N, 0.0000°E)
Time: 18:01:11
(UTC+02:00)
Language:

Cosmos 2219 Rocket - Orbit

View from above orbital plane
View from above orbital plane
View from above satellite
View from above satellite

Ground track
Ground track

The orbit data is extracted from the following two-line orbital elements,

1 22220U 92076B   18173.95587094 -.00000236 +00000-0 -94583-4 0  9995
2 22220 071.0000 358.7865 0010849 063.5298 044.9909 14.16431201322943
Epoch (UTC): 22 June 2018 22:56:27
Eccentricity: 0.0010849
inclination: 71.0000°
perigee height: 829 km
apogee height: 845 km
right ascension of ascending node: 358.7865°
argument of perigee: 63.5298°
revolutions per day: 14.16431201
mean anomaly at epoch: 44.9909°
orbit number at epoch: 32294

The dashed part of the orbit path shows where the satellite is in the earth's shadow,  

DLR